Beckley, WV

6:50 PM EST on November 21, 2019 (GMT -0500)
Raleigh County Memorial

Weather History for KBKW - July, 2019

Change the Weather History Date:

Friday, July 26, 2019

  Actual Average Record
Temperature  
Mean Temperature 70 °F 70 °F  
Max Temperature 80 °F 80 °F 93 °F (1934)
Min Temperature 60 °F 61 °F 42 °F (1911)
Degree Days  
Heating Degree Days 0 0  
Month to date heating degree days 0  
Since 1 June heating degree days 39  
Since 1 July heating degree days 0  
Cooling Degree Days 4 6  
Month to date cooling degree days 156  
Year to date cooling degree days 308  
Since 1 June cooling degree days 267  
Growing Degree Days 20 (Base 50)    
Moisture  
Dew Point 55 °F    
Average Humidity 63    
Maximum Humidity 86    
Minimum Humidity 39    
Precipitation  
Precipitation 0.00 in 0.16 in 3.48 in (2001)
Month to date precipitation 4.18  
Year to date precipitation 25.34  
Sea Level Pressure  
Sea Level Pressure 30.25 in    
Wind  
Wind Speed 4 mph ()    
Max Wind Speed 8 mph    
Max Gust Speed -    
Visibility 10.0 miles    
Events      
T = Trace of Precipitation, MM = Missing Value Source: Averaged Metar Reports

Daily Weather History Graph

Daily Weather History Graph

Search for Another Location

Airport or City:

Astronomy

Jul. 26, 2019 Rise Set
Actual Time 6:22 AM EDT 8:38 PM EDT
Civil Twilight 5:53 AM EDT 9:08 PM EDT
Nautical Twilight 5:16 AM EDT 9:44 PM EDT
Astronomical Twilight 4:36 AM EDT 10:24 PM EDT
Moon 1:32 AM EDT (7/26) 3:24 PM EDT (7/26)
Length of Visible Light 15h 15m
Length of Day
14h 15m
Waning Crescent, 34% of the Moon is Illuminated
Jul 26
Waning Crescent
Jul 31
New
Aug 7
First Quarter
Aug 15
Full
Aug 23
Last Quarter

Hourly Weather History & Observations

Time (EDT) Temp. Dew Point Humidity Pressure Visibility Wind Dir Wind Speed Gust Speed Precip Events Conditions
12:51 AM 61.0 °F 55.9 °F 83% 30.23 in 10.0 mi Calm Calm - N/A   Clear
1:51 AM 60.1 °F 55.9 °F 86% 30.22 in 10.0 mi Calm Calm - N/A   Clear
2:51 AM 60.1 °F 55.9 °F 86% 30.22 in 10.0 mi SSE 3.5 mph - N/A   Clear
3:51 AM 60.1 °F 55.0 °F 83% 30.22 in 10.0 mi Calm Calm - N/A   Clear
4:51 AM 62.1 °F 55.0 °F 78% 30.22 in 10.0 mi SSE 5.8 mph - N/A   Clear
5:51 AM 63.0 °F 54.0 °F 72% 30.23 in 10.0 mi SE 6.9 mph - N/A   Clear
6:51 AM 62.1 °F 54.0 °F 75% 30.24 in 10.0 mi SE 4.6 mph - N/A   Clear
7:51 AM 64.9 °F 55.0 °F 70% 30.25 in 10.0 mi SE 8.1 mph - N/A   Clear
8:51 AM 68.0 °F 57.0 °F 68% 30.27 in 10.0 mi SSE 4.6 mph - N/A   Clear
9:51 AM 71.1 °F 57.9 °F 63% 30.29 in 10.0 mi SSE 8.1 mph - N/A   Clear
10:51 AM 73.9 °F 57.9 °F 57% 30.29 in 10.0 mi South 6.9 mph - N/A   Clear
11:51 AM 75.0 °F 55.9 °F 51% 30.29 in 10.0 mi ESE 5.8 mph - N/A   Clear
12:51 PM 77.0 °F 54.0 °F 45% 30.28 in 10.0 mi Variable 4.6 mph - N/A   Clear
1:51 PM 77.0 °F 55.0 °F 47% 30.27 in 10.0 mi Variable 4.6 mph - N/A   Clear
2:51 PM 75.9 °F 55.0 °F 48% 30.27 in 10.0 mi SSE 4.6 mph - N/A   Scattered Clouds
3:51 PM 79.0 °F 54.0 °F 42% 30.25 in 10.0 mi South 4.6 mph - N/A   Partly Cloudy
4:51 PM 77.0 °F 50.0 °F 39% 30.25 in 10.0 mi SE 6.9 mph - N/A   Partly Cloudy
5:51 PM 75.9 °F 52.0 °F 43% 30.23 in 10.0 mi South 4.6 mph - N/A   Clear
6:51 PM 73.9 °F 54.0 °F 50% 30.24 in 10.0 mi SE 5.8 mph - N/A   Scattered Clouds
7:51 PM 73.0 °F 55.9 °F 55% 30.24 in 10.0 mi SE 4.6 mph - N/A   Mostly Cloudy
8:51 PM 71.1 °F 55.0 °F 57% 30.25 in 10.0 mi SSE 4.6 mph - N/A   Partly Cloudy
9:51 PM 68.0 °F 55.9 °F 65% 30.25 in 10.0 mi South 5.8 mph - N/A   Partly Cloudy
10:51 PM 66.0 °F 55.9 °F 70% 30.26 in 10.0 mi North - - N/A   Scattered Clouds
11:51 PM 64.0 °F 55.0 °F 73% 30.26 in 10.0 mi SE 5.8 mph - N/A   Scattered Clouds